Home > Weather > Hangzhou > Past weeks

Flag for China Past Weather in Hangzhou, Zhejiang, China — Yesterday and Last 2 Weeks

Now
88 °F

Scattered clouds.


Feels Like: 85 °F
Forecast: 64 / 87 °F
Wind: 13 mph from North

Location: Hangzhou Airport

Current Time: Aug 28, 2016 at 3:09:58 PM

Latest Report: Aug 28, 2016 at 2:30 PM


Visibility: N/A

Pressure: 29.77 "Hg

Humidity: 29%

Dew Point: 52 °F

Location of HangzhouLocation

Past Weather in Hangzhou — Graph

°F

Hangzhou Temperature Yesterday

Maximum temperature yesterday: 88 °F (at 1:00 PM)
Minimum temperature yesterday: 79 °F (at 2:00 AM)
Average temperature yesterday: 82 °F

High & Low Weather Summary for the Past Weeks

 TemperatureHumidityPressure
High104 °F (Aug 19, 3:00 PM)100% (Aug 25, 6:00 AM)29.86 "Hg (Aug 25, 6:00 AM)
Low73 °F (Aug 28, 5:00 AM)25% (Aug 28, 1:30 PM)29.53 "Hg (Aug 15, 3:30 PM)
Average88 °F71%29.65 "Hg
* Reported Aug 13 2:00 PM — Aug 28 2:00 PM, Hangzhou, Weather by CustomWeather, © 2016

Note: Actual official high and low records may vary slightly from our data, if they occured in-between our weather recording intervals... More about our weather records

Advertising

Hangzhou Weather History for the Previous 24 Hours

Scroll right to see more
 ConditionsComfort  
Time TempWeatherWind HumidityBarometerVisibility
2:00 PM
Sun, Aug 28
88 °FScattered clouds.17 mph29%29.77 "HgN/A
1:30 PM88 °FScattered clouds.15 mph25%29.80 "HgN/A
1:00 PM88 °FScattered clouds.15 mph27%29.80 "HgN/A
12:30 PM88 °FScattered clouds.15 mph31%29.80 "HgN/A
12:00 PM86 °FScattered clouds.15 mph35%29.83 "HgN/A
11:30 AM86 °FScattered clouds.17 mph38%29.83 "HgN/A
11:00 AM84 °FScattered clouds.15 mph43%29.83 "HgN/A
10:30 AM84 °FPassing clouds.15 mph43%29.83 "HgN/A
10:00 AM84 °FPassing clouds.13 mph40%29.83 "HgN/A
9:30 AM82 °FPassing clouds.13 mph45%29.83 "HgN/A
9:00 AM81 °FPassing clouds.10 mph48%29.83 "HgN/A
8:30 AM79 °FPassing clouds.10 mph51%29.86 "HgN/A
8:00 AM79 °FSunny.8 mph51%29.83 "Hg10 mi
7:30 AM77 °FSunny.10 mph54%29.83 "Hg10 mi
7:00 AM75 °FSunny.10 mph57%29.83 "Hg10 mi
6:30 AM75 °FSunny.6 mph57%29.83 "Hg10 mi
6:00 AM73 °FPassing clouds.6 mph57%29.83 "HgN/A
5:30 AM73 °FPassing clouds.6 mph53%29.83 "HgN/A
5:00 AM73 °FClear.6 mph57%29.83 "Hg10 mi
4:30 AM75 °FPassing clouds.8 mph57%29.80 "HgN/A
4:00 AM75 °FPassing clouds.8 mph57%29.80 "HgN/A
3:30 AM75 °FClear.8 mph65%29.80 "Hg10 mi
3:00 AM77 °FPassing clouds.10 mph65%29.80 "HgN/A
2:30 AM77 °FClear.10 mph65%29.80 "Hg10 mi
2:00 AM77 °FClear.13 mph65%29.80 "Hg10 mi
1:30 AM77 °FPassing clouds.10 mph65%29.80 "HgN/A
1:00 AM79 °FClear.13 mph65%29.80 "Hg10 mi
12:30 AM79 °FPassing clouds.10 mph58%29.80 "HgN/A
12:00 AM81 °FClear.10 mph54%29.80 "Hg10 mi
11:30 PM
Sat, Aug 27
81 °FClear.8 mph54%29.80 "Hg10 mi
11:00 PM81 °FPassing clouds.6 mph54%29.80 "HgN/A
10:30 PM81 °FPassing clouds.6 mph54%29.80 "HgN/A
10:00 PM81 °FPassing clouds.6 mph54%29.80 "HgN/A
9:30 PM82 °FPassing clouds.8 mph51%29.80 "HgN/A
9:00 PM82 °FPassing clouds.6 mph51%29.80 "HgN/A
8:30 PM82 °FPassing clouds.6 mph51%29.80 "HgN/A
8:00 PM82 °FPassing clouds.6 mph51%29.80 "HgN/A
7:30 PM82 °FPassing clouds.6 mph51%29.80 "HgN/A
7:00 PM82 °FPassing clouds.8 mph51%29.80 "HgN/A
6:30 PM82 °FPassing clouds.8 mph48%29.77 "HgN/A
6:00 PM84 °FPassing clouds.10 mph40%29.77 "HgN/A
5:30 PM84 °FPassing clouds.13 mph51%29.77 "HgN/A
5:00 PM84 °FPassing clouds.13 mph51%29.77 "HgN/A
4:30 PM84 °FSunny.10 mph51%29.77 "Hg10 mi
4:00 PM86 °FPassing clouds.8 mph46%29.77 "HgN/A
3:30 PM86 °FPassing clouds.10 mph43%29.77 "HgN/A
3:00 PM86 °FPassing clouds.10 mph46%29.77 "HgN/A
Weather by CustomWeather, © 2016

See weather overviewHow to use our weather pages